,,Stat1,,Stat2,,Stat3,,Stat4,,Wind1,,Wind1,
time,status,PR1M_SUM,status,RH1M_AVG,status,SR1M_AVG,status,TA1M_AVG,status,W1dAve1m,status,W1sAve1m,
1999-08-27, 00:00:00,VALID,0,VALID,90.6374,VALID,-0.0339617,VALID,20.8073,VALID,228,VALID,1.77508,
1999-08-27, 00:01:00,VALID,0,VALID,90.7506,VALID,-0.0169808,VALID,20.7876,VALID,218,VALID,1.52027,
1999-08-27, 00:02:00,VALID,0,VALID,91.2147,VALID,-0.0509425,VALID,20.7203,VALID,209,VALID,1.45613,
1999-08-27, 00:03:00,VALID,0,VALID,91.5975,VALID,0,VALID,20.6551,VALID,216,VALID,1.46389,
1999-08-27, 00:04:00,VALID,0,VALID,91.9014,VALID,0.0339617,VALID,20.6133,VALID,211,VALID,1.35959,
1999-08-27, 00:05:00,VALID,0,VALID,91.9167,VALID,0.0509425,VALID,20.5737,VALID,210,VALID,1.34992,
1999-08-27, 00:06:00,VALID,0,VALID,91.9574,VALID,0.0679233,VALID,20.5675,VALID,208,VALID,1.3197,
1999-08-27, 00:07:00,VALID,0,VALID,91.7412,VALID,0.0509425,VALID,20.5775,VALID,210,VALID,1.57171,
1999-08-27, 00:08:00,VALID,0,VALID,91.4182,VALID,0.0339617,VALID,20.6322,VALID,211,VALID,1.47617,
1999-08-27, 00:09:00,VALID,0,VALID,91.1308,VALID,0.0679233,VALID,20.6904,VALID,214,VALID,1.0606,
1999-08-27, 00:10:00,VALID,0,VALID,90.8829,VALID,0.0339617,VALID,20.7135,VALID,201,VALID,0.807143,
1999-08-27, 00:11:00,VALID,0,VALID,91.5352,VALID,0.0169808,VALID,20.6844,VALID,204,VALID,1.22616,
1999-08-27, 00:12:00,VALID,0,VALID,91.5225,VALID,0.0339617,VALID,20.6844,VALID,208,VALID,1.19428,
1999-08-27, 00:13:00,VALID,0,VALID,91.3483,VALID,0.0679233,VALID,20.7098,VALID,213,VALID,0.821837,
1999-08-27, 00:14:00,VALID,0,VALID,91.2618,VALID,0.0339617,VALID,20.7362,VALID,210,VALID,0.922476,
1999-08-27, 00:15:00,VALID,0,VALID,91.305,VALID,0.0679233,VALID,20.7356,VALID,220,VALID,1.05617,
1999-08-27, 00:16:00,VALID,0,VALID,91.188,VALID,0.0339617,VALID,20.768,VALID,217,VALID,1.03945,
1999-08-27, 00:17:00,VALID,0,VALID,91.0812,VALID,0.0339617,VALID,20.7744,VALID,222,VALID,1.19024,
1999-08-27, 00:18:00,VALID,0,VALID,91.1397,VALID,-0.0339617,VALID,20.7402,VALID,221,VALID,1.3277,
1999-08-27, 00:19:01,VALID,0,VALID,91.0965,VALID,-0.0679233,VALID,20.721,VALID,220,VALID,1.31172,
1999-08-27, 00:20:00,VALID,0,VALID,91.2147,VALID,-0.0169808,VALID,20.7151,VALID,221,VALID,1.39203,
1999-08-27, 00:21:00,VALID,0,VALID,91.3546,VALID,-0.0339617,VALID,20.6954,VALID,228,VALID,1.11839,
1999-08-27, 00:22:00,VALID,0,VALID,91.3877,VALID,-0.0339617,VALID,20.676,VALID,220,VALID,0.94933,
1999-08-27, 00:23:00,VALID,0,VALID,91.5746,VALID,-0.0339617,VALID,20.6572,VALID,214,VALID,0.999805,
1999-08-27, 00:24:00,VALID,0,VALID,91.9535,VALID,-0.0509425,VALID,20.6079,VALID,215,VALID,1.4264,
1999-08-27, 00:25:00,VALID,0,VALID,92.1201,VALID,-0.0679233,VALID,20.5922,VALID,212,VALID,1.3384,
1999-08-27, 00:26:00,VALID,0,VALID,92.3236,VALID,-0.0509425,VALID,20.5624,VALID,213,VALID,1.52268,
1999-08-27, 00:27:00,VALID,0,VALID,92.3516,VALID,-0.0169808,VALID,20.5631,VALID,220,VALID,1.37852,
1999-08-27, 00:28:00,VALID,0,VALID,92.5665,VALID,-0.0509425,VALID,20.5365,VALID,215,VALID,1.56691,
1999-08-27, 00:29:00,VALID,0,VALID,92.5944,VALID,-0.0339617,VALID,20.5273,VALID,213,VALID,1.86213,
1999-08-27, 00:30:00,VALID,0,VALID,92.3249,VALID,-0.0679233,VALID,20.5664,VALID,212,VALID,1.55387,
1999-08-27, 00:31:01,VALID,0,VALID,92.2969,VALID,-0.0339617,VALID,20.5723,VALID,218,VALID,1.52229,
1999-08-27, 00:32:00,VALID,0,VALID,92.0871,VALID,-0.0849042,VALID,20.5629,VALID,215,VALID,1.56629,
1999-08-27, 00:33:00,VALID,0,VALID,92.0743,VALID,-0.0509425,VALID,20.5852,VALID,210,VALID,1.52303,
1999-08-27, 00:34:00,VALID,0,VALID,91.979,VALID,-0.0849042,VALID,20.6111,VALID,213,VALID,1.4943,
1999-08-27, 00:35:00,VALID,0,VALID,91.8404,VALID,-0.0169808,VALID,20.6181,VALID,207,VALID,1.45313,
1999-08-27, 00:36:00,VALID,0,VALID,92.1494,VALID,-0.0679233,VALID,20.6084,VALID,223,VALID,1.59663,
1999-08-27, 00:37:00,VALID,0,VALID,92.0476,VALID,-0.0169808,VALID,20.6246,VALID,218,VALID,1.56147,
1999-08-27, 00:38:00,VALID,0,VALID,91.9968,VALID,-0.0849042,VALID,20.6243,VALID,212,VALID,1.84916,
1999-08-27, 00:39:00,VALID,0,VALID,92.0273,VALID,-0.0679233,VALID,20.6211,VALID,210,VALID,1.32285,
1999-08-27, 00:40:00,VALID,0,VALID,92.2142,VALID,-0.0849042,VALID,20.6022,VALID,214,VALID,1.80099,
1999-08-27, 00:41:00,VALID,0,VALID,92.2854,VALID,-0.0679233,VALID,20.5952,VALID,217,VALID,1.69922,
1999-08-27, 00:42:00,VALID,0,VALID,92.3198,VALID,-0.101885,VALID,20.6251,VALID,220,VALID,1.76727,
1999-08-27, 00:43:00,VALID,0,VALID,92.1494,VALID,-0.0679233,VALID,20.6248,VALID,228,VALID,1.38281,
1999-08-27, 00:44:00,VALID,0,VALID,92.4139,VALID,-0.0509425,VALID,20.6181,VALID,221,VALID,2.16289,
1999-08-27, 00:45:00,VALID,0,VALID,92.4253,VALID,-0.0679233,VALID,20.6014,VALID,217,VALID,1.36677,
1999-08-27, 00:46:00,VALID,0,VALID,92.6504,VALID,-0.0339617,VALID,20.5696,VALID,217,VALID,1.65246,
1999-08-27, 00:47:00,VALID,0,VALID,93.1005,VALID,-0.0509425,VALID,20.5114,VALID,224,VALID,1.3726,
1999-08-27, 00:48:00,VALID,0,VALID,93.4172,VALID,-0.0679233,VALID,20.44,VALID,221,VALID,1.40646,
1999-08-27, 00:49:00,VALID,0,VALID,93.702,VALID,-0.0339617,VALID,20.3821,VALID,223,VALID,1.16959,
1999-08-27, 00:50:00,VALID,0,VALID,94.025,VALID,-0.0849042,VALID,20.3142,VALID,210,VALID,1.13782,
1999-08-27, 00:51:00,VALID,0,VALID,94.217,VALID,-0.101885,VALID,20.2401,VALID,211,VALID,1.38471,
1999-08-27, 00:52:00,VALID,0,VALID,94.7651,VALID,-0.0679233,VALID,20.1722,VALID,211,VALID,1.87324,
1999-08-27, 00:53:00,VALID,0,VALID,94.8884,VALID,-0.0679233,VALID,20.1558,VALID,216,VALID,1.68834,
1999-08-27, 00:54:00,VALID,0,VALID,94.8375,VALID,-0.0679233,VALID,20.1555,VALID,208,VALID,1.86402,
1999-08-27, 00:55:00,VALID,0,VALID,94.8274,VALID,-0.0509425,VALID,20.1525,VALID,202,VALID,1.57578,
1999-08-27, 00:56:00,VALID,0,VALID,94.9049,VALID,-0.0849042,VALID,20.1495,VALID,213,VALID,1.50641,
1999-08-27, 00:57:00,VALID,0,VALID,95.0753,VALID,-0.0679233,VALID,20.1458,VALID,207,VALID,1.77023,
1999-08-27, 00:58:00,VALID,0,VALID,94.9685,VALID,-0.0339617,VALID,20.1784,VALID,215,VALID,1.6058,
1999-08-27, 00:59:00,VALID,0,VALID,94.9253,VALID,-0.101885,VALID,20.1652,VALID,204,VALID,1.37695,
1999-08-27, 01:00:00,VALID,0,VALID,94.9787,VALID,-0.0509425,VALID,20.1657,VALID,201,VALID,1.64371,
1999-08-27, 01:01:00,VALID,0,VALID,95.2673,VALID,-0.0679233,VALID,20.1779,VALID,210,VALID,1.94881,
1999-08-27, 01:02:00,VALID,0,VALID,95.0588,VALID,-0.0679233,VALID,20.2299,VALID,209,VALID,1.30221,
1999-08-27, 01:03:00,VALID,0,VALID,94.8668,VALID,-0.0169808,VALID,20.2356,VALID,193,VALID,0.976758,
1999-08-27, 01:04:00,VALID,0,VALID,94.807,VALID,0.0169808,VALID,20.2092,VALID,215,VALID,0.920473,
1999-08-27, 01:05:00,VALID,0,VALID,95.2038,VALID,0,VALID,20.2,VALID,207,VALID,1.40579,
1999-08-27, 01:06:00,VALID,0,VALID,95.2584,VALID,0,VALID,20.1903,VALID,213,VALID,1.41098,
1999-08-27, 01:07:00,VALID,0,VALID,95.3157,VALID,0,VALID,20.1774,VALID,212,VALID,1.78998,
1999-08-27, 01:08:00,VALID,0,VALID,95.3538,VALID,0,VALID,20.1843,VALID,206,VALID,1.55491,
1999-08-27, 01:09:00,VALID,0,VALID,95.2457,VALID,0.0169808,VALID,20.1744,VALID,219,VALID,1.40378,
1999-08-27, 01:10:00,VALID,0,VALID,95.3347,VALID,0,VALID,20.155,VALID,211,VALID,1.60346,
1999-08-27, 01:11:00,VALID,0,VALID,95.4441,VALID,0,VALID,20.1423,VALID,213,VALID,1.53405,
1999-08-27, 01:12:00,VALID,0,VALID,95.481,VALID,-0.0169808,VALID,20.113,VALID,208,VALID,1.72142,
1999-08-27, 01:13:00,VALID,0,VALID,95.5255,VALID,0,VALID,20.0841,VALID,210,VALID,1.44058,
1999-08-27, 01:14:00,VALID,0,VALID,95.7251,VALID,0.0169808,VALID,20.0645,VALID,210,VALID,1.3774,
1999-08-27, 01:15:01,VALID,0,VALID,95.7874,VALID,-0.0339617,VALID,20.0488,VALID,220,VALID,0.918164,
1999-08-27, 01:16:00,VALID,0,VALID,95.8192,VALID,0,VALID,20.0225,VALID,204,VALID,1.06702,
1999-08-27, 01:17:00,VALID,0,VALID,95.9578,VALID,-0.0169808,VALID,20.0031,VALID,204,VALID,1.044,
1999-08-27, 01:18:00,VALID,0,VALID,95.968,VALID,-0.0169808,VALID,19.9901,VALID,212,VALID,0.970189,
1999-08-27, 01:19:00,VALID,0,VALID,95.9922,VALID,0.0169808,VALID,19.9777,VALID,198,VALID,0.921474,
1999-08-27, 01:20:00,VALID,0,VALID,95.8904,VALID,0,VALID,19.9613,VALID,196,VALID,1.14492,
1999-08-27, 01:21:00,VALID,0,VALID,95.8116,VALID,0,VALID,19.9454,VALID,185,VALID,0.969595,
1999-08-27, 01:22:00,VALID,0,VALID,95.5713,VALID,0,VALID,19.9262,VALID,179,VALID,0.5,
1999-08-27, 01:23:00,VALID,0,VALID,95.893,VALID,0,VALID,19.923,VALID,172,VALID,1.02724,
1999-08-27, 01:24:00,VALID,0,VALID,95.8129,VALID,0,VALID,19.9096,VALID,149,VALID,0.839433,
1999-08-27, 01:25:00,VALID,0,VALID,95.5903,VALID,0,VALID,19.8869,VALID,111,VALID,1.22885,
1999-08-27, 01:26:01,VALID,0,VALID,95.5535,VALID,0,VALID,19.8422,VALID,95,VALID,0.998397,
1999-08-27, 01:27:00,VALID,0,VALID,95.7137,VALID,0,VALID,19.79,VALID,96,VALID,0.986275,
1999-08-27, 01:28:00,VALID,0,VALID,95.9705,VALID,0,VALID,19.7479,VALID,127,VALID,0.767773,
1999-08-27, 01:29:00,VALID,0,VALID,96.1791,VALID,0,VALID,19.7129,VALID,107,VALID,0.903083,
1999-08-27, 01:30:00,VALID,0,VALID,96.1575,VALID,0,VALID,19.6609,VALID,138,VALID,0.584671,
1999-08-27, 01:31:00,VALID,0,VALID,96.5148,VALID,0,VALID,19.6515,VALID,130,VALID,0.645117,
1999-08-27, 01:32:00,VALID,0,VALID,96.5847,VALID,-0.0169808,VALID,19.6358,VALID,124,VALID,0.874399,
1999-08-27, 01:33:00,VALID,0,VALID,96.4436,VALID,0,VALID,19.6032,VALID,114,VALID,1.3123,
1999-08-27, 01:34:00,VALID,0,VALID,96.5911,VALID,0,VALID,19.5677,VALID,108,VALID,1.59241,
1999-08-27, 01:35:00,VALID,0,VALID,96.998,VALID,-0.0339617,VALID,19.558,VALID,126,VALID,1.23809,
1999-08-27, 01:36:00,VALID,0,VALID,97.354,VALID,0,VALID,19.5677,VALID,156,VALID,0.689556,
1999-08-27, 01:37:01,VALID,0,VALID,97.3401,VALID,0,VALID,19.5741,VALID,176,VALID,0.696957,
1999-08-27, 01:38:00,VALID,0,VALID,97.1557,VALID,-0.0169808,VALID,19.5674,VALID,212,VALID,0.336509,
1999-08-27, 01:39:00,VALID,0,VALID,97.1353,VALID,0,VALID,19.5644,VALID,232,VALID,0.84707,
1999-08-27, 01:40:00,VALID,0,VALID,96.9929,VALID,-0.0169808,VALID,19.5585,VALID,234,VALID,0.728566,
1999-08-27, 01:41:00,VALID,0,VALID,96.9026,VALID,0,VALID,19.5284,VALID,235,VALID,0.45795,
1999-08-27, 01:42:00,VALID,0,VALID,96.942,VALID,-0.0169808,VALID,19.5127,VALID,251,VALID,0.932155,
1999-08-27, 01:43:00,VALID,0,VALID,97.3375,VALID,-0.0169808,VALID,19.5286,VALID,250,VALID,1.52229,
1999-08-27, 01:44:00,VALID,0,VALID,97.5143,VALID,0,VALID,19.5513,VALID,273,VALID,1.14375,
1999-08-27, 01:45:00,VALID,0,VALID,97.452,VALID,0,VALID,19.561,VALID,270,VALID,0.899054,
1999-08-27, 01:46:00,VALID,0,VALID,97.307,VALID,0.0339617,VALID,19.5577,VALID,256,VALID,0.632179,
1999-08-27, 01:47:00,VALID,0,VALID,97.2587,VALID,0,VALID,19.5411,VALID,272,VALID,0.44371,
1999-08-27, 01:48:01,VALID,0,VALID,97.1976,VALID,0,VALID,19.5475,VALID,273,VALID,0.594572,
1999-08-27, 01:49:00,VALID,0,VALID,97.1074,VALID,0,VALID,19.5545,VALID,246,VALID,1.34272,
1999-08-27, 01:50:00,VALID,0,VALID,96.9166,VALID,-0.0169808,VALID,19.5386,VALID,285,VALID,0.920473,
1999-08-27, 01:51:00,VALID,0,VALID,96.9306,VALID,0.0169808,VALID,19.5607,VALID,269,VALID,1.11426,
1999-08-27, 01:52:00,VALID,0,VALID,96.956,VALID,0.0169808,VALID,19.5704,VALID,254,VALID,1.15913,
1999-08-27, 01:53:00,VALID,0,VALID,96.8708,VALID,0,VALID,19.5794,VALID,271,VALID,0.849301,
1999-08-27, 01:54:00,VALID,0,VALID,96.6241,VALID,0.0169808,VALID,19.6,VALID,269,VALID,0.829564,
1999-08-27, 01:55:00,VALID,0,VALID,96.4499,VALID,-0.0169808,VALID,19.6057,VALID,253,VALID,0.86278,
1999-08-27, 01:56:00,VALID,0,VALID,96.3724,VALID,0.0169808,VALID,19.6219,VALID,276,VALID,0.387695,
1999-08-27, 01:57:00,VALID,0,VALID,96.2465,VALID,-0.0169808,VALID,19.6251,VALID,284,VALID,0.445524,
1999-08-27, 01:58:01,VALID,0,VALID,96.1041,VALID,-0.0169808,VALID,19.6544,VALID,277,VALID,0.762054,
1999-08-27, 01:59:01,VALID,0,VALID,96.0265,VALID,0,VALID,19.6639,VALID,285,VALID,0.864383,
1999-08-27, 02:00:00,VALID,0,VALID,95.7544,VALID,0,VALID,19.7094,VALID,292,VALID,0.686472,
1999-08-27, 02:01:00,VALID,0,VALID,95.4263,VALID,0.0339617,VALID,19.7353,VALID,290,VALID,0.471037,
1999-08-27, 02:02:00,VALID,0,VALID,95.2521,VALID,0,VALID,19.7775,VALID,275,VALID,0.536258,
1999-08-27, 02:03:00,VALID,0,VALID,95.0079,VALID,-0.0169808,VALID,19.7934,VALID,293,VALID,0.745144,
1999-08-27, 02:04:00,VALID,0,VALID,94.8032,VALID,-0.0339617,VALID,19.8646,VALID,324,VALID,0.525,
1999-08-27, 02:05:00,VALID,0,VALID,94.5145,VALID,0,VALID,19.9039,VALID,317,VALID,0.191723,
1999-08-27, 02:06:00,VALID,0,VALID,94.0263,VALID,0.0169808,VALID,19.8743,VALID,280,VALID,0,
1999-08-27, 02:07:00,VALID,0,VALID,93.571,VALID,0.0169808,VALID,19.8158,VALID,232,VALID,0.336523,
1999-08-27, 02:08:00,VALID,0,VALID,93.9169,VALID,-0.0339617,VALID,19.745,VALID,230,VALID,0.363381,
1999-08-27, 02:09:00,VALID,0,VALID,94.7218,VALID,0,VALID,19.6868,VALID,221,VALID,0.438101,
1999-08-27, 02:10:01,VALID,0,VALID,94.1178,VALID,0.0169808,VALID,19.6612,VALID,166,VALID,0.281696,
1999-08-27, 02:11:00,VALID,0,VALID,94.3416,VALID,0,VALID,19.5995,VALID,179,VALID,0.23457,
1999-08-27, 02:12:00,VALID,0,VALID,95.027,VALID,0,VALID,19.5769,VALID,201,VALID,0.38014,
1999-08-27, 02:13:00,VALID,0,VALID,94.4993,VALID,-0.0169808,VALID,19.5614,VALID,186,VALID,0.389803,
1999-08-27, 02:14:00,VALID,0,VALID,95.3106,VALID,0,VALID,19.545,VALID,190,VALID,0.880145,
1999-08-27, 02:15:00,VALID,0,VALID,95.5967,VALID,-0.0509425,VALID,19.6002,VALID,199,VALID,1.11113,
1999-08-27, 02:16:00,VALID,0,VALID,94.7765,VALID,-0.0339617,VALID,19.6646,VALID,205,VALID,1.17047,
1999-08-27, 02:17:00,VALID,0,VALID,94.0873,VALID,0,VALID,19.7648,VALID,192,VALID,1.30423,
1999-08-27, 02:18:00,VALID,0,VALID,93.6829,VALID,-0.0169808,VALID,19.8096,VALID,182,VALID,1.46875,
1999-08-27, 02:19:00,VALID,0,VALID,93.6677,VALID,0,VALID,19.8745,VALID,197,VALID,1.33663,
1999-08-27, 02:20:00,VALID,0,VALID,93.2417,VALID,0,VALID,19.962,VALID,201,VALID,1.43371,
1999-08-27, 02:21:01,VALID,0,VALID,92.9047,VALID,-0.0339617,VALID,20.0262,VALID,211,VALID,1.42763,
1999-08-27, 02:22:00,VALID,0,VALID,92.4482,VALID,0,VALID,20.0976,VALID,191,VALID,0.94489,
1999-08-27, 02:23:00,VALID,0,VALID,92.3833,VALID,-0.0169808,VALID,20.1073,VALID,207,VALID,1.3115,
1999-08-27, 02:24:00,VALID,0,VALID,92.143,VALID,-0.0339617,VALID,20.1304,VALID,207,VALID,0.654605,
1999-08-27, 02:25:00,VALID,0,VALID,92.1061,VALID,-0.0169808,VALID,20.1272,VALID,191,VALID,0.866776,
1999-08-27, 02:26:00,VALID,0,VALID,92.3198,VALID,0,VALID,20.1102,VALID,203,VALID,0.754207,
1999-08-27, 02:27:00,VALID,0,VALID,92.1532,VALID,-0.0169808,VALID,20.1272,VALID,214,VALID,0.65,
1999-08-27, 02:28:00,VALID,0,VALID,92.0909,VALID,0,VALID,20.1175,VALID,211,VALID,0.574836,
1999-08-27, 02:29:00,VALID,0,VALID,92.3833,VALID,0,VALID,20.0921,VALID,207,VALID,0.891036,
1999-08-27, 02:30:00,VALID,0,VALID,92.6898,VALID,-0.0169808,VALID,20.0625,VALID,215,VALID,1.08902,
1999-08-27, 02:31:01,VALID,0,VALID,92.6122,VALID,0,VALID,20.069,VALID,197,VALID,0.949319,
1999-08-27, 02:32:01,VALID,0,VALID,92.6745,VALID,0,VALID,20.0555,VALID,206,VALID,1.22207,
1999-08-27, 02:33:00,VALID,0,VALID,92.644,VALID,0,VALID,20.0846,VALID,219,VALID,1.31926,
1999-08-27, 02:34:00,VALID,0,VALID,92.1646,VALID,-0.0169808,VALID,20.1458,VALID,212,VALID,1.39107,
1999-08-27, 02:35:00,VALID,0,VALID,91.8111,VALID,0,VALID,20.208,VALID,192,VALID,0.927684,
1999-08-27, 02:36:00,VALID,0,VALID,91.277,VALID,0.0169808,VALID,20.1916,VALID,156,VALID,0.989515,
1999-08-27, 02:37:00,VALID,0,VALID,92.3884,VALID,0.0169808,VALID,20.0844,VALID,171,VALID,0.966082,
1999-08-27, 02:38:00,VALID,0,VALID,92.5308,VALID,0,VALID,20.0782,VALID,196,VALID,1.34836,
1999-08-27, 02:39:00,VALID,0,VALID,92.1723,VALID,0.0169808,VALID,20.1329,VALID,199,VALID,1.13239,
1999-08-27, 02:40:00,VALID,0,VALID,91.9637,VALID,0,VALID,20.1786,VALID,223,VALID,0.807813,
1999-08-27, 02:41:00,VALID,0,VALID,91.2427,VALID,-0.0339617,VALID,20.1695,VALID,153,VALID,0.990498,
1999-08-27, 02:42:00,VALID,0,VALID,91.7488,VALID,-0.0169808,VALID,20.1458,VALID,188,VALID,0.977618,
1999-08-27, 02:43:01,VALID,0,VALID,91.3266,VALID,0,VALID,20.1816,VALID,158,VALID,0.745703,
1999-08-27, 02:44:00,VALID,0,VALID,91.5365,VALID,-0.0169808,VALID,20.1886,VALID,168,VALID,0.610777,
1999-08-27, 02:45:00,VALID,0,VALID,91.7742,VALID,-0.0169808,VALID,20.1819,VALID,222,VALID,1.05128,
1999-08-27, 02:46:00,VALID,0,VALID,91.7056,VALID,-0.0169808,VALID,20.1948,VALID,232,VALID,1.16607,
1999-08-27, 02:47:00,VALID,0,VALID,91.4411,VALID,-0.0339617,VALID,20.2242,VALID,220,VALID,1.14316,
1999-08-27, 02:48:00,VALID,0,VALID,91.7208,VALID,0.0169808,VALID,20.1779,VALID,216,VALID,1.82689,
1999-08-27, 02:49:00,VALID,0,VALID,91.6979,VALID,0.0339617,VALID,20.1814,VALID,224,VALID,1.39535,
1999-08-27, 02:50:00,VALID,0,VALID,91.8416,VALID,0.0169808,VALID,20.1911,VALID,216,VALID,1.39082,
1999-08-27, 02:51:00,VALID,0,VALID,91.8353,VALID,0.0509425,VALID,20.1843,VALID,220,VALID,1.33145,
1999-08-27, 02:52:00,VALID,0,VALID,91.9396,VALID,0.0339617,VALID,20.1978,VALID,212,VALID,1.28986,
1999-08-27, 02:53:00,VALID,0,VALID,92.012,VALID,0.0679233,VALID,20.1911,VALID,221,VALID,1.0301,
1999-08-27, 02:54:00,VALID,0,VALID,91.9777,VALID,0.0509425,VALID,20.1881,VALID,216,VALID,0.809416,
1999-08-27, 02:55:00,VALID,0,VALID,92.0578,VALID,0.0679233,VALID,20.1717,VALID,190,VALID,0.81296,
1999-08-27, 02:56:00,VALID,0,VALID,92.3388,VALID,0.0339617,VALID,20.1547,VALID,171,VALID,0.995536,
1999-08-27, 02:57:00,VALID,0,VALID,92.1926,VALID,0.0339617,VALID,20.1649,VALID,154,VALID,0.796464,
1999-08-27, 02:58:00,VALID,0,VALID,91.9383,VALID,0.101885,VALID,20.162,VALID,156,VALID,1.00908,
1999-08-27, 02:59:00,VALID,0,VALID,92.3427,VALID,0.101885,VALID,20.1391,VALID,156,VALID,1.20313,
1999-08-27, 03:00:00,VALID,0,VALID,92.3592,VALID,0.0679233,VALID,20.1421,VALID,167,VALID,1.23314,
1999-08-27, 03:01:00,VALID,0,VALID,92.2765,VALID,0.0849042,VALID,20.1741,VALID,182,VALID,1.23766,
1999-08-27, 03:02:00,VALID,0,VALID,92.1176,VALID,0.0509425,VALID,20.2231,VALID,189,VALID,1.31891,
1999-08-27, 03:03:01,VALID,0,VALID,91.7692,VALID,0.0169808,VALID,20.2493,VALID,164,VALID,1.1627,
1999-08-27, 03:04:00,VALID,0,VALID,92.2536,VALID,-0.0509425,VALID,20.1794,VALID,164,VALID,1.08614,
1999-08-27, 03:05:00,VALID,0,VALID,92.6758,VALID,-0.0679233,VALID,20.1018,VALID,172,VALID,1.26789,
1999-08-27, 03:06:00,VALID,0,VALID,92.6682,VALID,-0.0679233,VALID,20.1016,VALID,187,VALID,1.31682,
1999-08-27, 03:07:00,VALID,0,VALID,92.4851,VALID,0,VALID,20.1374,VALID,191,VALID,1.58954,
1999-08-27, 03:08:00,VALID,0,VALID,92.0438,VALID,-0.0169808,VALID,20.2115,VALID,189,VALID,1.09512,
1999-08-27, 03:09:00,VALID,0,VALID,91.6382,VALID,0,VALID,20.2306,VALID,153,VALID,1.09987,
1999-08-27, 03:10:00,VALID,0,VALID,91.9535,VALID,0,VALID,20.2244,VALID,188,VALID,1.12545,
1999-08-27, 03:11:00,VALID,0,VALID,91.848,VALID,-0.0339617,VALID,20.2468,VALID,197,VALID,0.870192,
1999-08-27, 03:12:00,VALID,0,VALID,91.642,VALID,-0.0679233,VALID,20.3025,VALID,184,VALID,0.847245,
1999-08-27, 03:13:00,VALID,0,VALID,91.4894,VALID,-0.0339617,VALID,20.358,VALID,204,VALID,0.943979,
1999-08-27, 03:14:01,VALID,0,VALID,91.4335,VALID,-0.0339617,VALID,20.3667,VALID,212,VALID,0.63121,
1999-08-27, 03:15:00,VALID,0,VALID,91.4258,VALID,-0.0339617,VALID,20.3669,VALID,206,VALID,1.21769,
1999-08-27, 03:16:00,VALID,0,VALID,91.4551,VALID,-0.0679233,VALID,20.3605,VALID,203,VALID,0.745508,
1999-08-27, 03:17:00,VALID,0,VALID,91.4424,VALID,-0.0509425,VALID,20.3602,VALID,214,VALID,1.46558,
1999-08-27, 03:18:00,VALID,0,VALID,91.3597,VALID,0.0169808,VALID,20.3823,VALID,211,VALID,1.35389,
1999-08-27, 03:19:00,VALID,0,VALID,91.4462,VALID,0.0169808,VALID,20.3686,VALID,225,VALID,1.12246,
1999-08-27, 03:20:00,VALID,0,VALID,91.6725,VALID,0.0679233,VALID,20.3425,VALID,214,VALID,1.32252,
1999-08-27, 03:21:00,VALID,0,VALID,91.8671,VALID,0.0679233,VALID,20.3263,VALID,216,VALID,1.29006,
1999-08-27, 03:22:00,VALID,0,VALID,91.8785,VALID,0.0849042,VALID,20.3199,VALID,227,VALID,1.61049,
1999-08-27, 03:23:00,VALID,0,VALID,91.8518,VALID,0.0339617,VALID,20.3261,VALID,207,VALID,1.84687,
1999-08-27, 03:24:00,VALID,0,VALID,91.82,VALID,0.0849042,VALID,20.339,VALID,231,VALID,1.25699,
1999-08-27, 03:25:00,VALID,0,VALID,91.7514,VALID,0.0679233,VALID,20.3525,VALID,227,VALID,1.48623,
1999-08-27, 03:26:00,VALID,0,VALID,91.7374,VALID,0.0509425,VALID,20.3686,VALID,225,VALID,1.51143,
1999-08-27, 03:27:00,VALID,0,VALID,91.6674,VALID,0.0849042,VALID,20.3713,VALID,225,VALID,2.25156,
1999-08-27, 03:28:00,VALID,0,VALID,91.806,VALID,0.0339617,VALID,20.3816,VALID,222,VALID,1.75962,
1999-08-27, 03:29:00,VALID,0,VALID,91.8302,VALID,0,VALID,20.3689,VALID,227,VALID,2.27183,
1999-08-27, 03:30:00,VALID,0,VALID,91.7959,VALID,0.0509425,VALID,20.3813,VALID,215,VALID,1.6509,
1999-08-27, 03:31:00,VALID,0,VALID,91.7933,VALID,0.0679233,VALID,20.3848,VALID,200,VALID,1.93336,
1999-08-27, 03:32:00,VALID,0,VALID,91.6763,VALID,0.0509425,VALID,20.401,VALID,215,VALID,2.1058,
1999-08-27, 03:33:00,VALID,0,VALID,91.3572,VALID,0,VALID,20.4273,VALID,209,VALID,1.76295,
1999-08-27, 03:34:00,VALID,0,VALID,91.319,VALID,-0.0339617,VALID,20.4408,VALID,223,VALID,1.231,
1999-08-27, 03:35:00,VALID,0,VALID,91.1893,VALID,-0.0679233,VALID,20.4416,VALID,223,VALID,1.47576,
1999-08-27, 03:36:01,VALID,0,VALID,91.2491,VALID,-0.0339617,VALID,20.4378,VALID,211,VALID,1.82627,
1999-08-27, 03:37:01,VALID,0,VALID,91.2898,VALID,-0.0509425,VALID,20.4284,VALID,231,VALID,1.74137,
1999-08-27, 03:38:00,VALID,0,VALID,91.2109,VALID,-0.0339617,VALID,20.4313,VALID,228,VALID,2.45272,
1999-08-27, 03:39:00,VALID,0,VALID,91.1753,VALID,-0.0339617,VALID,20.447,VALID,222,VALID,2.38984,
1999-08-27, 03:40:00,VALID,0,VALID,91.244,VALID,-0.0679233,VALID,20.4472,VALID,235,VALID,1.93812,
1999-08-27, 03:41:00,VALID,0,VALID,91.3432,VALID,-0.0339617,VALID,20.405,VALID,224,VALID,2.02118,
1999-08-27, 03:42:00,VALID,0,VALID,91.3979,VALID,-0.0509425,VALID,20.396,VALID,223,VALID,2.07422,
1999-08-27, 03:43:00,VALID,0,VALID,91.3457,VALID,-0.0169808,VALID,20.3793,VALID,224,VALID,2.03586,
1999-08-27, 03:44:00,VALID,0,VALID,91.1804,VALID,0,VALID,20.3993,VALID,217,VALID,2.16387,
1999-08-27, 03:45:00,VALID,0,VALID,90.9935,VALID,-0.0339617,VALID,20.4278,VALID,217,VALID,2.07791,
1999-08-27, 03:46:00,VALID,0,VALID,91.0215,VALID,-0.0339617,VALID,20.4403,VALID,207,VALID,1.65134,
1999-08-27, 03:47:01,VALID,0,VALID,91.1219,VALID,-0.0509425,VALID,20.4443,VALID,206,VALID,1.20212,
1999-08-27, 03:48:00,VALID,0,VALID,91.1321,VALID,0,VALID,20.4017,VALID,198,VALID,1.191,
1999-08-27, 03:49:00,VALID,0,VALID,90.7633,VALID,0,VALID,20.392,VALID,203,VALID,1.75248,
1999-08-27, 03:50:00,VALID,0,VALID,90.6285,VALID,0.0169808,VALID,20.4104,VALID,202,VALID,1.14663,
1999-08-27, 03:51:00,VALID,0,VALID,90.2013,VALID,0,VALID,20.4427,VALID,206,VALID,1.71242,
1999-08-27, 03:52:00,VALID,0,VALID,89.6494,VALID,0.0169808,VALID,20.5241,VALID,220,VALID,1.77988,
1999-08-27, 03:53:00,VALID,0,VALID,89.3328,VALID,-0.0169808,VALID,20.6044,VALID,211,VALID,1.37268,
1999-08-27, 03:54:00,VALID,0,VALID,89.0823,VALID,0,VALID,20.6467,VALID,215,VALID,1.51119,
1999-08-27, 03:55:00,VALID,0,VALID,88.8,VALID,0,VALID,20.6758,VALID,215,VALID,2.15156,
1999-08-27, 03:56:00,VALID,0,VALID,88.3473,VALID,0,VALID,20.7571,VALID,214,VALID,1.80128,
1999-08-27, 03:57:00,VALID,0,VALID,88.4083,VALID,-0.0169808,VALID,20.7795,VALID,199,VALID,0.842748,
1999-08-27, 03:58:01,VALID,0,VALID,88.4312,VALID,-0.0169808,VALID,20.7827,VALID,192,VALID,0.920759,
1999-08-27, 03:59:00,VALID,0,VALID,88.5431,VALID,0,VALID,20.7671,VALID,186,VALID,0.779492,
1999-08-27, 04:00:00,VALID,0,VALID,88.3841,VALID,0,VALID,20.7305,VALID,212,VALID,1.39248,
1999-08-27, 04:01:00,VALID,0,VALID,88.2443,VALID,0,VALID,20.7598,VALID,191,VALID,1.16406,
1999-08-27, 04:02:00,VALID,0,VALID,88.2048,VALID,0.0169808,VALID,20.7725,VALID,182,VALID,0.817073,
1999-08-27, 04:03:00,VALID,0,VALID,88.2277,VALID,0.0339617,VALID,20.786,VALID,195,VALID,0.86875,
1999-08-27, 04:04:00,VALID,0,VALID,88.2811,VALID,0,VALID,20.769,VALID,215,VALID,0.948518,
1999-08-27, 04:05:00,VALID,0,VALID,88.4248,VALID,0,VALID,20.7494,VALID,194,VALID,1.22725,